FIN4KB EFHK-ESSA

Flight info

Callsign FIN4KB
Flight time 0h 46m
Altitude 32000
Route ADIVO Y365 POGOK DCT RUNGA N872 XILAN
Aircraft A320/M-SDE3FGHIRWY/LB1

Departure

Time 2026-04-25 09:08
Airport Helsinki Vantaa Airport (EFHK)

Arrival

Time 2026-04-25 09:54
Airport Stockholm-Arlanda Airport (ESSA)
Time Latitude Longitude Altitude Speed Heading
2026-04-25 08:37 60.31945 24.96923 167 ft 0 kts 242°
2026-04-25 08:57 60.31948 24.96934 194 ft 2 kts 242°
2026-04-25 08:58 60.31957 24.96969 194 ft 3 kts 242°
2026-04-25 08:58 60.31966 24.97003 161 ft 3 kts 244°
2026-04-25 08:58 60.31970 24.97031 166 ft 3 kts 302°
2026-04-25 08:58 60.31957 24.97056 166 ft 2 kts 330°
2026-04-25 08:59 60.31948 24.97066 166 ft 3 kts 332°
2026-04-25 08:59 60.31930 24.97085 166 ft 3 kts 332°
2026-04-25 08:59 60.31912 24.97103 166 ft 3 kts 332°
2026-04-25 08:59 60.31893 24.97122 166 ft 3 kts 332°
2026-04-25 09:00 60.31875 24.97140 166 ft 3 kts 332°
2026-04-25 09:00 60.31865 24.97152 166 ft 0 kts 332°
2026-04-25 09:00 60.31864 24.97152 166 ft 0 kts 332°
2026-04-25 09:02 60.31870 24.97146 166 ft 3 kts 333°
2026-04-25 09:03 60.31931 24.97085 166 ft 15 kts 333°
2026-04-25 09:03 60.32028 24.96985 166 ft 17 kts 332°
2026-04-25 09:03 60.32128 24.96872 166 ft 17 kts 329°
2026-04-25 09:03 60.32237 24.96744 166 ft 19 kts 330°
2026-04-25 09:04 60.32352 24.96610 172 ft 18 kts 330°
2026-04-25 09:04 60.32453 24.96492 174 ft 18 kts 330°
2026-04-25 09:04 60.32569 24.96356 173 ft 20 kts 330°
2026-04-25 09:04 60.32699 24.96206 172 ft 23 kts 330°
2026-04-25 09:05 60.32837 24.96044 174 ft 23 kts 330°
2026-04-25 09:05 60.32954 24.95907 177 ft 15 kts 330°
2026-04-25 09:05 60.33042 24.95804 181 ft 14 kts 329°
2026-04-25 09:05 60.33129 24.95665 180 ft 17 kts 317°
2026-04-25 09:06 60.33205 24.95496 183 ft 16 kts 291°
2026-04-25 09:06 60.33161 24.95284 179 ft 20 kts 227°
2026-04-25 09:06 60.33107 24.95068 178 ft 18 kts 266°
2026-04-25 09:06 60.33113 24.94814 180 ft 18 kts 272°
2026-04-25 09:07 60.33118 24.94596 186 ft 11 kts 273°
2026-04-25 09:07 60.33122 24.94464 190 ft 9 kts 273°
2026-04-25 09:07 60.33099 24.94355 204 ft 8 kts 229°
2026-04-25 09:07 60.33007 24.94153 197 ft 48 kts 227°
2026-04-25 09:08 60.32616 24.93292 180 ft 117 kts 227°
2026-04-25 09:08 60.31945 24.91812 270 ft 158 kts 226°
2026-04-25 09:08 60.31230 24.90210 1074 ft 151 kts 231°
2026-04-25 09:08 60.30543 24.88570 1740 ft 159 kts 240°
2026-04-25 09:09 60.30257 24.86341 2195 ft 174 kts 272°
2026-04-25 09:09 60.30506 24.83884 2633 ft 192 kts 292°
2026-04-25 09:09 60.31227 24.81436 3033 ft 215 kts 299°
2026-04-25 09:09 60.31899 24.78560 3557 ft 237 kts 289°
2026-04-25 09:10 60.32183 24.75230 4381 ft 246 kts 270°
2026-04-25 09:10 60.32062 24.71812 5375 ft 248 kts 264°
2026-04-25 09:10 60.31872 24.68348 6421 ft 247 kts 263°
2026-04-25 09:10 60.31689 24.64876 7382 ft 249 kts 264°
2026-04-25 09:11 60.31402 24.57804 9266 ft 256 kts 266°
2026-04-25 09:11 60.31287 24.54125 9803 ft 274 kts 266°
2026-04-25 09:11 60.31175 24.50197 10243 ft 290 kts 266°
2026-04-25 09:12 60.31064 24.46090 11014 ft 296 kts 266°
2026-04-25 09:12 60.30955 24.41935 11876 ft 298 kts 266°
2026-04-25 09:12 60.30847 24.37740 12751 ft 300 kts 266°
2026-04-25 09:12 60.30738 24.33525 13571 ft 302 kts 266°
2026-04-25 09:13 60.30627 24.29273 14323 ft 304 kts 266°
2026-04-25 09:13 60.30512 24.24990 15058 ft 307 kts 266°
2026-04-25 09:13 60.30392 24.20663 15769 ft 310 kts 265°
2026-04-25 09:13 60.30271 24.16292 16497 ft 313 kts 265°
2026-04-25 09:14 60.30147 24.11893 17234 ft 316 kts 265°
2026-04-25 09:14 60.30020 24.07444 17895 ft 319 kts 265°
2026-04-25 09:14 60.29891 24.02945 18508 ft 322 kts 265°
2026-04-25 09:14 60.29739 23.98414 19111 ft 325 kts 262°
2026-04-25 09:15 60.29316 23.93977 19699 ft 328 kts 257°
2026-04-25 09:15 60.28826 23.89470 20302 ft 331 kts 257°
2026-04-25 09:15 60.28328 23.84913 20902 ft 334 kts 257°
2026-04-25 09:15 60.27826 23.80319 21497 ft 337 kts 257°
2026-04-25 09:16 60.27320 23.75685 22092 ft 340 kts 257°
2026-04-25 09:16 60.26811 23.71006 22700 ft 343 kts 257°
2026-04-25 09:16 60.26295 23.66279 23227 ft 347 kts 257°
2026-04-25 09:16 60.25771 23.61507 23686 ft 350 kts 257°
2026-04-25 09:17 60.24702 23.51851 24575 ft 357 kts 257°
2026-04-25 09:17 60.24160 23.46961 25001 ft 360 kts 257°
2026-04-25 09:17 60.23607 23.42016 25425 ft 363 kts 257°
2026-04-25 09:18 60.23049 23.37036 25838 ft 366 kts 257°
2026-04-25 09:18 60.22489 23.32074 26270 ft 370 kts 257°
2026-04-25 09:18 60.21914 23.27011 26637 ft 374 kts 257°
2026-04-25 09:18 60.21332 23.21896 27011 ft 377 kts 257°
2026-04-25 09:19 60.20743 23.16722 27399 ft 380 kts 257°
2026-04-25 09:19 60.20150 23.11520 27747 ft 383 kts 258°
2026-04-25 09:19 60.19551 23.06284 28162 ft 385 kts 258°
2026-04-25 09:19 60.18947 23.01020 28558 ft 387 kts 258°
2026-04-25 09:20 60.18335 22.95729 28928 ft 390 kts 258°
2026-04-25 09:20 60.17717 22.90405 29290 ft 393 kts 258°
2026-04-25 09:20 60.17100 22.85114 29606 ft 395 kts 258°
2026-04-25 09:20 60.16468 22.79716 29872 ft 398 kts 258°
2026-04-25 09:21 60.15831 22.74278 30137 ft 401 kts 258°
2026-04-25 09:21 60.15188 22.68818 30396 ft 403 kts 258°
2026-04-25 09:21 60.14536 22.63323 30645 ft 406 kts 258°
2026-04-25 09:21 60.13878 22.57785 30894 ft 408 kts 258°
2026-04-25 09:22 60.13219 22.52227 31186 ft 410 kts 258°
2026-04-25 09:22 60.12556 22.46663 31410 ft 411 kts 258°
2026-04-25 09:22 60.11894 22.41172 31446 ft 397 kts 257°
2026-04-25 09:23 60.10833 22.32457 31452 ft 381 kts 257°
2026-04-25 09:23 60.09379 22.20526 31454 ft 378 kts 258°
2026-04-25 09:24 60.08334 22.11954 31455 ft 377 kts 257°
2026-04-25 09:24 60.07086 22.01818 31450 ft 377 kts 258°
2026-04-25 09:25 60.05828 21.91642 31459 ft 376 kts 257°
2026-04-25 09:25 60.04555 21.81479 31457 ft 376 kts 257°
2026-04-25 09:26 60.03270 21.71344 31475 ft 375 kts 257°
2026-04-25 09:26 60.01995 21.61284 31466 ft 375 kts 257°
2026-04-25 09:27 60.00704 21.51160 31459 ft 376 kts 257°
2026-04-25 09:27 59.99402 21.41038 31454 ft 376 kts 257°
2026-04-25 09:28 59.98062 21.30947 31462 ft 376 kts 256°
2026-04-25 09:28 59.96653 21.20885 31466 ft 376 kts 256°
2026-04-25 09:29 59.95236 21.10845 31460 ft 376 kts 256°
2026-04-25 09:29 59.93825 21.00856 31467 ft 376 kts 256°
2026-04-25 09:30 59.92404 20.90819 31470 ft 376 kts 256°
2026-04-25 09:30 59.90958 20.80683 31486 ft 389 kts 256°
2026-04-25 09:31 59.89447 20.70129 31495 ft 407 kts 256°
2026-04-25 09:31 59.87902 20.59391 30991 ft 397 kts 256°
2026-04-25 09:31 59.87137 20.54131 30269 ft 397 kts 255°
2026-04-25 09:32 59.86368 20.48855 29629 ft 395 kts 255°
2026-04-25 09:32 59.85606 20.43628 28978 ft 391 kts 255°
2026-04-25 09:32 59.84850 20.38454 28359 ft 386 kts 255°
2026-04-25 09:32 59.84104 20.33351 27756 ft 381 kts 255°
2026-04-25 09:33 59.83362 20.28310 27171 ft 377 kts 255°
2026-04-25 09:33 59.82636 20.23407 26608 ft 373 kts 255°
2026-04-25 09:33 59.81908 20.18500 26055 ft 368 kts 255°
2026-04-25 09:33 59.81183 20.13639 25503 ft 364 kts 255°
2026-04-25 09:34 59.80464 20.08837 24986 ft 360 kts 255°
2026-04-25 09:34 59.79753 20.04094 24423 ft 357 kts 255°
2026-04-25 09:34 59.79049 19.99402 23966 ft 352 kts 255°
2026-04-25 09:34 59.78354 19.94770 23489 ft 348 kts 255°
2026-04-25 09:35 59.77665 19.90189 23008 ft 344 kts 255°
2026-04-25 09:35 59.76978 19.85639 22363 ft 343 kts 255°
2026-04-25 09:35 59.76294 19.81135 21925 ft 340 kts 255°
2026-04-25 09:35 59.75612 19.76662 21494 ft 337 kts 255°
2026-04-25 09:36 59.74945 19.72282 21042 ft 335 kts 255°
2026-04-25 09:36 59.74302 19.67874 20658 ft 329 kts 256°
2026-04-25 09:36 59.73711 19.63577 20466 ft 317 kts 256°
2026-04-25 09:36 59.73146 19.59365 19988 ft 314 kts 256°
2026-04-25 09:37 59.72587 19.55197 19528 ft 312 kts 256°
2026-04-25 09:37 59.72028 19.51059 19072 ft 310 kts 256°
2026-04-25 09:37 59.71467 19.46955 18627 ft 307 kts 256°
2026-04-25 09:37 59.70905 19.42887 18196 ft 305 kts 256°
2026-04-25 09:38 59.70341 19.38831 17774 ft 303 kts 256°
2026-04-25 09:38 59.69780 19.34822 17329 ft 301 kts 256°
2026-04-25 09:38 59.69227 19.30884 16865 ft 299 kts 256°
2026-04-25 09:38 59.68670 19.26934 16389 ft 297 kts 256°
2026-04-25 09:39 59.68118 19.23013 16001 ft 294 kts 256°
2026-04-25 09:39 59.67569 19.19140 15608 ft 290 kts 256°
2026-04-25 09:39 59.67025 19.15318 15254 ft 287 kts 257°
2026-04-25 09:40 59.65957 19.07774 14565 ft 280 kts 257°
2026-04-25 09:40 59.65438 19.04126 14380 ft 271 kts 257°
2026-04-25 09:40 59.64928 19.00552 14063 ft 269 kts 257°
2026-04-25 09:40 59.64420 18.97000 13706 ft 268 kts 257°
2026-04-25 09:41 59.63913 18.93455 13362 ft 268 kts 258°
2026-04-25 09:41 59.63408 18.89912 12962 ft 267 kts 257°
2026-04-25 09:41 59.62900 18.86375 12566 ft 266 kts 257°
2026-04-25 09:41 59.62396 18.82899 12176 ft 266 kts 257°
2026-04-25 09:42 59.61883 18.79397 11782 ft 265 kts 257°
2026-04-25 09:42 59.61370 18.75902 11391 ft 265 kts 257°
2026-04-25 09:42 59.60860 18.72410 10997 ft 264 kts 257°
2026-04-25 09:42 59.60355 18.68934 10606 ft 264 kts 257°
2026-04-25 09:43 59.59849 18.65458 10229 ft 263 kts 257°
2026-04-25 09:43 59.59344 18.61986 9852 ft 263 kts 258°
2026-04-25 09:43 59.58840 18.58527 9468 ft 262 kts 257°
2026-04-25 09:43 59.58334 18.55073 9039 ft 262 kts 257°
2026-04-25 09:44 59.57827 18.51625 8600 ft 262 kts 258°
2026-04-25 09:44 59.57319 18.48178 8530 ft 264 kts 258°
2026-04-25 09:44 59.56803 18.44696 8532 ft 265 kts 258°
2026-04-25 09:44 59.56284 18.41191 8532 ft 266 kts 258°
2026-04-25 09:45 59.55768 18.37710 8260 ft 264 kts 258°
2026-04-25 09:45 59.55251 18.34244 7813 ft 263 kts 258°
2026-04-25 09:45 59.54740 18.30843 7418 ft 262 kts 258°
2026-04-25 09:45 59.54225 18.27406 6998 ft 261 kts 258°
2026-04-25 09:46 59.53713 18.23978 6588 ft 260 kts 258°
2026-04-25 09:46 59.53105 18.20611 6170 ft 263 kts 248°
2026-04-25 09:46 59.52090 18.17576 5738 ft 267 kts 237°
2026-04-25 09:46 59.50940 18.14687 5284 ft 266 kts 237°
2026-04-25 09:47 59.49802 18.11827 4858 ft 264 kts 237°
2026-04-25 09:47 59.48672 18.08984 4451 ft 262 kts 237°
2026-04-25 09:47 59.47571 18.06226 4316 ft 250 kts 237°
2026-04-25 09:47 59.46522 18.03607 4182 ft 237 kts 238°
2026-04-25 09:48 59.45525 18.01115 4067 ft 226 kts 238°
2026-04-25 09:48 59.44585 17.98769 3989 ft 214 kts 238°
2026-04-25 09:48 59.43703 17.96560 4015 ft 196 kts 241°
2026-04-25 09:48 59.43223 17.94245 3990 ft 178 kts 269°
2026-04-25 09:49 59.43380 17.91931 3838 ft 167 kts 296°
2026-04-25 09:49 59.44055 17.90112 3762 ft 165 kts 320°
2026-04-25 09:49 59.45076 17.89110 3646 ft 167 kts 345°
2026-04-25 09:49 59.46245 17.89154 3478 ft 172 kts
2026-04-25 09:50 59.47412 17.89578 3256 ft 173 kts
2026-04-25 09:50 59.48589 17.90005 3026 ft 171 kts
2026-04-25 09:50 59.49765 17.90429 2790 ft 171 kts
2026-04-25 09:50 59.50932 17.90850 2557 ft 170 kts
2026-04-25 09:51 59.52089 17.91267 2317 ft 166 kts
2026-04-25 09:51 59.53174 17.91661 2107 ft 153 kts
2026-04-25 09:51 59.54197 17.92028 1913 ft 147 kts
2026-04-25 09:51 59.55200 17.92389 1698 ft 146 kts
2026-04-25 09:52 59.56188 17.92744 1489 ft 146 kts
2026-04-25 09:52 59.57180 17.93074 1307 ft 139 kts
2026-04-25 09:52 59.58106 17.93401 1119 ft 133 kts
2026-04-25 09:52 59.59004 17.93730 915 ft 131 kts
2026-04-25 09:53 59.59902 17.94050 738 ft 131 kts
2026-04-25 09:53 59.60790 17.94383 581 ft 129 kts
2026-04-25 09:53 59.61676 17.94717 395 ft 130 kts
2026-04-25 09:53 59.62550 17.95048 215 ft 128 kts
2026-04-25 09:54 59.63390 17.95347 123 ft 109 kts 10°
2026-04-25 09:54 59.64022 17.95578 110 ft 72 kts 11°
2026-04-25 09:54 59.64294 17.95679 112 ft 24 kts
2026-04-25 09:54 59.64455 17.95696 107 ft 23 kts 354°
2026-04-25 09:55 59.64601 17.95626 108 ft 15 kts 341°
2026-04-25 09:55 59.64688 17.95552 107 ft 12 kts 317°
2026-04-25 09:55 59.64666 17.95407 103 ft 14 kts 204°
2026-04-25 09:55 59.64585 17.95321 104 ft 13 kts 219°
2026-04-25 09:56 59.64535 17.95187 105 ft 12 kts 236°
2026-04-25 09:56 59.64486 17.95031 104 ft 16 kts 238°
2026-04-25 09:56 59.64423 17.94834 104 ft 18 kts 238°
2026-04-25 09:56 59.64350 17.94605 103 ft 21 kts 237°
2026-04-25 09:57 59.64268 17.94347 103 ft 23 kts 238°
2026-04-25 09:57 59.64179 17.94069 106 ft 24 kts 237°
2026-04-25 09:57 59.64089 17.93790 111 ft 24 kts 237°
2026-04-25 09:57 59.64019 17.93571 112 ft 17 kts 237°
2026-04-25 09:58 59.63989 17.93344 111 ft 18 kts 276°
2026-04-25 09:58 59.64039 17.93101 110 ft 20 kts 297°
2026-04-25 09:58 59.64095 17.92900 112 ft 13 kts 310°
2026-04-25 09:58 59.64184 17.92870 112 ft 13 kts 336°
2026-04-25 09:59 59.64235 17.92709 113 ft 14 kts 297°
2026-04-25 09:59 59.64276 17.92629 113 ft 8 kts 14°
2026-04-25 09:59 59.64328 17.92725 112 ft 10 kts 41°
2026-04-25 09:59 59.64358 17.92777 112 ft 6 kts 41°
2026-04-25 10:00 59.64373 17.92802 112 ft 1 kts 40°
2026-04-25 10:00 59.64374 17.92804 112 ft 0 kts 40°